Weather in Port Alberni

Canada     49°14′03″N   124°48′27″W
temp.,
°C
wind,
m/s
gust,
m/s
humid.,
%
clouds,
%
prec.,
mm/h
press.,
hPa
HPBL,
m
6 march, sat
sat601:000sse23989 0.8 101185
04:00+1sse239954 9.1 1011171
07:00+2ssw1399100 2.7 1012121
10:00+5ssw249096 2.8 1014540
13:00+6ssw3578100 0.5 10151109
16:00+5s258599 1.3 1014911
19:00+1sse2295100 0.3 101371
22:000se2394100 0.4 101257
7 march, sun
sun701:000se2399100 1.2 1010121
04:000s2499100 6.3 1012201
07:00−1s239887 0.5 1012169
10:00+2sse249685 2.5 1015340
13:00+3ssw379192 2.1 1017920
16:00+3s258576 2.9 10181012
19:00−1sse229590 0.4 101944
22:00−2sse229495 0.4 102047
8 march, mon
mon801:00−1se119598 0.1 102028
04:00−3sse119674 0.1 102021
07:00−4ne019644 0.0 101921
10:00+3nnw118536 0.0 1018457
13:00+4n117895 0.1 1017693
16:00+4n117498 0.1 1017833
19:00−1nne1194100 0.0 101722
22:00−2ese0195100 0.0 101921
9 march, tue
tue901:00−3ne0194100 0.0 101821
04:00−2ne1191100 0.0 101921
07:00−3ne119597 0.0 101821
10:00+3nne127959 0.0 1018502
13:00+6nne116785 0.0 1018865
16:00+5nnw126791 0.1 1017961
19:00−1wsw019242 0.0 101821
22:00−2ssw119521 0.0 101922
10 march, wed
wed1001:00−3ssw11940 0.0 101921
04:00−4ssw00940 0.0 101921
07:00−4ne01940 0.0 101921
10:00+2ne226145 0.0 1019734
13:00+6ene114410 0.0 10191268
16:00+5n115122 0.0 10191290
19:00−1ne1183100 0.0 102121
22:00−3s118887 0.0 102221